Regional Weather Roundup
Issued by NWS

Home | Current Version | Previous Version | Text Only | Print | Product List | Glossary Off
Versions: 1 2 3 4 5 6 7 8 9 10 11 12 13 14 15 16 17 18 19 20 21 22 23 24 25 26 27 28 29 30 31 32 33 34 35 36 37 38 39 40 41 42 43 44 45 46 47 48 49 50

000
ASUS43 KMKX 281700
RWRWI

WISCONSIN REGIONAL WEATHER ROUNDUP
NATIONAL WEATHER SERVICE MILWAUKEE/SULLIVAN WI
1200 PM CDT TUE MAR 28 2017

NOTE: "FAIR" INDICATES FEW OR NO CLOUDS BELOW 12,000 FEET WITH NO
SIGNIFICANT WEATHER AND/OR OBSTRUCTIONS TO VISIBILITY.

WIZ001-002-006>008-014>016-023>028-281800-
NORTHWEST WISCONSIN

CITY           SKY/WX    TMP DP  RH WIND       PRES   REMARKS
SUPERIOR ARPT  SUNNY     51  33  49 CALM      30.17R
ASHLAND        SUNNY     54  30  40 NW3       30.17S
HAYWARD        SUNNY     53  21  28 SE7       30.16S
SIREN          SUNNY     53  29  38 CALM      30.16R
CUMBERLAND     SUNNY     50  32  50 CALM      30.16R
RICE LAKE      SUNNY     50  35  56 CALM      30.18R
CHETEK         SUNNY     49  35  58 CALM      30.17R
LADYSMITH      SUNNY     51  33  50 CALM      30.17S
EAU CLAIRE     NOT AVBL
MENOMONIE      SUNNY     48  38  66 CALM      30.18R
NEW RICHMOND   SUNNY     53  38  55 CALM      30.16R
OSCEOLA        SUNNY     54  36  52 CALM      30.19R
$$

WIZ003>005-009-010-017-018-281800-
NORTH CENTRAL WISCONSIN

CITY           SKY/WX    TMP DP  RH WIND       PRES   REMARKS
MANITOWISH WTR SUNNY     48  28  46 SE5       30.15S
ARBOR VITAE    SUNNY     49  32  51 CALM      30.15R
WOODRUFF       SUNNY     49  32  51 CALM      30.15R
RHINELANDER    SUNNY     51  32  48 VRB5      30.16R
EAGLE RIVER    SUNNY     49  27  41 SE5       30.14S
LAND O LAKES   SUNNY     50  28  42 CALM      30.17R
PHILLIPS       SUNNY     48  33  54 CALM      30.15R
TOMAHAWK       SUNNY     49  32  52 CALM      30.16S
MEDFORD        SUNNY     45  36  70 CALM      30.15S
MERRILL        SUNNY     47  33  58 E3        30.17S
$$

WIZ029-030-035-036-043>047-281800-
CENTRAL WISCONSIN

CITY           SKY/WX    TMP DP  RH WIND       PRES   REMARKS
WAUSAU         SUNNY     49  34  56 SW7       30.15R
MOSINEE        MOSUNNY   46  39  76 CALM      30.17R
MARSHFIELD     MOSUNNY   44  38  79 VRB3      30.16R
STEVENS POINT  SUNNY     48  34  58 SE5       30.16S
WAUPACA        SUNNY     53  35  50 NE7       30.16S
WAUTOMA        SUNNY     51  37  58 N5        30.16S
WISC RAPIDS    SUNNY     51  34  52 VRB7      30.17S
CAMP DOUGLAS   NOT AVBL
$$

WIZ011>013-019>022-031-037>040-048>050-281800-
NORTHEAST WISCONSIN

CITY           SKY/WX    TMP DP  RH WIND       PRES   REMARKS
ANTIGO         SUNNY     46  35  66 CALM      30.16R
SHAWANO        SUNNY     48  35  59 CALM      30.17R
OCONTO         SUNNY     39  33  79 E6        30.18R WCI  35
STURGEON BAY   CLOUDY    35  33  92 NW6       30.17F FOG     WCI  30
GREEN BAY      SUNNY     47  39  74 NE7       30.17R
MANITOWOC      NOT AVBL
APPLETON       MOSUNNY   46  36  66 N8        30.14R
CLINTONVILLE   SUNNY     48  32  53 NE5       30.16S
OSHKOSH        SUNNY     46  38  73 NE9       30.16R
$$

WIZ032>034-041-042-053>061-281800-
SOUTHWEST WISCONSIN

CITY           SKY/WX    TMP DP  RH WIND       PRES   REMARKS
LA CROSSE      SUNNY     50  39  66 W7        30.16F
SPARTA         SUNNY     51  38  62 E6        30.17S
VIROQUA        MOSUNNY   49  37  63 CALM      30.15R
BOSCOBEL       CLOUDY    48  37  65 E6        30.17R
PRAIRIE DU CHI CLOUDY    48  40  74 NE8       30.16R
PLATTEVILLE    CLOUDY    45  43  92 NE7       30.16R
$$

WIZ056-057-062-063-064-067-068-281800-
SOUTH CENTRAL WISCONSIN

CITY           SKY/WX    TMP DP  RH WIND       PRES   REMARKS
REEDSBURG      PTSUNNY   47  38  69 E6        30.17R
BARABOO/DELLS  PTSUNNY   47  36  64 CALM      30.16R
LONE ROCK      NOT AVBL
MINERAL POINT  CLOUDY    45  41  87 E8        30.15R
MADISON        PTSUNNY   48  36  63 E3        30.15R
MIDDLETON      CLOUDY    48  39  69 E6        30.16R
WATERTOWN      MOSUNNY   49  38  67 N7        30.14R
MONROE         CLOUDY    43  37  81 NE9       30.14R
JANESVILLE     CLOUDY    48  37  66 E12       30.14R
$$

WIZ051-052-058>065-066-070>072-281800-
SOUTHEAST WISCONSIN

CITY           SKY/WX    TMP DP  RH WIND       PRES   REMARKS
MILWAUKEE      CLOUDY    41  35  79 NE13      30.15S
WAUKESHA       NOT AVBL
MILWAUKEE/TIMM SUNNY     45  36  70 E7        30.15R
RACINE         CLOUDY    40  35  83 N14       30.16R WCI  32
KENOSHA        CLOUDY    45  38  76 NE12      30.14R
FOND DU LAC    SUNNY     47  35  63 N10       30.16R
SHEBOYGAN      MOSUNNY   44  38  79 NE7       30.15R
WEST BEND      SUNNY     46  36  66 NE8       30.14R
JUNEAU         SUNNY     47  37  68 N7        30.15R
$$

LSZ147-162-281800-
LAKE SUPERIOR

STATION/POSITION TIME  TEMP    WIND        PRES    WAVE
                       AIR SEA DIR/SP/G            HT/PER
                 (UTC) (F)     (DEG/KT/KT) (MB)    (FT/S)
DEVILS ISLAND    1600   36     240/  9/ 10 1022.3R
PORT WING        1640   37     340/  3/  6 1022.0R
SAXON HARBOR     1640   42      40/  3/  3 1021.7S
$$

LMZ867-665-643>646-281800-
LAKE MICHIGAN

STATION/POSITION TIME  TEMP    WIND        PRES    WAVE
                       AIR SEA DIR/SP/G            HT/PER
                 (UTC) (F)     (DEG/KT/KT) (MB)    (FT/S)
CHAMBERS ISLAND  1640   33     340/  6/  8 1022.0R
NORTHPORT PIER   1640   33     320/  3/  5 1022.0R
SISTER BAY       1451   35     110/  6/  9   N/A
KEWAUNEE LAKESHO 1630   33      20/  8/ 11 1021.3R
SHEBOYGAN LAKESH 1600   35      30/ 10/ 11 1021.3R
PORT WASHINGTON  1630   39      50/  9/ 13 1022.0R
MILWAUKEE LAKESH 1520   38      30/ 12/ 15   N/A
KENOSHA   LAKESH 1600   38      30/ 14/ 16 1020.7
$$

TC  - TEMPERATURE IN CELSIUS
VSB - VISIBILITY IN STATUTE MILES
WCI - WIND CHILL INDEX
HX  - HEAT INDEX





USA.gov is the U.S. government's official web portal to all federal, state and local government web resources and services.